Regional Weather Roundup
Issued by NWS Goodland, KS

Home | Current Version | Previous Version | Graphics & Text | Print | Product List | Glossary On
Versions: 1 2 3 4 5 6 7 8 9 10 11 12 13 14 15 16 17 18 19 20 21 22 23 24 25 26 27 28 29 30 31 32 33 34 35 36 37 38 39 40 41 42 43 44 45 46 47 48 49 50
000
ASUS43 KGLD 311459
RWRGLD

GOODLAND FORECAST AREA HOURLY WEATHER ROUNDUP
NATIONAL WEATHER SERVICE GOODLAND KS
900 AM MDT WED AUG 31 2016

...OFFICIAL OBSERVATIONS...

CITY           SKY/WX    TMP DP  RH WIND       PRES   REMARKS
GOODLAND KS    CLOUDY    64  63  96 E5        30.26R FOG
HILL CITY KS   CLOUDY    67  66  97 CALM      30.22R
IMPERIAL NEB   CLOUDY    66  64  93 E7        30.25R
MCCOOK NEB     CLOUDY    70  66  87 E7        30.23S
AKRON CO       FOG       60  58  92 E8        30.29R VSB 3/4
BURLINGTON CO  CLOUDY    63  61  93 SW6       30.27R FOG
LIMON CO       SUNNY     64  53  67 CALM      30.32R
$$

...UNOFFICIAL OBSERVATIONS...

CITY           SKY/WX    TMP DP  RH WIND       PRES   REMARKS
COLBY KS       CLOUDY    66  66 100 E6        30.25R FOG
LENORA KS        N/A     68  32  26 MISG        N/A
NORTON KS      CLOUDY    68  63  83 CALM      30.21S
SHARON SPRINGS   N/A     67  65  95 CALM        N/A
TRENTON NEB      N/A     66  32  28 MISG        N/A
KIT CARSON CO    N/A     61  56  84 MISG        N/A
$$




USA.gov is the U.S. government's official web portal to all federal, state and local government web resources and services.